Zurück zum Katalog

CZ-6A DEB

AktivSSO
NORAD 56620·DEBRIS·🇨🇳 China

Gestartet Nov 11, 2022 von Taiyuan Satellite Launch Center

Loading…

Nächste Überflüge (nächste 24 Stunden)

TLE

AktuellSource: Space-Track

Epoche: Sep 14, 2026, 08:23 UTC

1 56620U 22151AEU 26257.34956747  .00000584  00000-0  47799-3 0  9993
2 56620  98.9428 210.0564 0154397 231.5027 127.2200 13.88105003176577

Verfolge CZ-6A DEB in Echtzeit mit AllMySat

Download on the App Store